sat.trackr.live / text

‹ back to catalog

GPS BIIRM-2 (PRN 31)

NORAD 29486 · 2006-042A

PAYLOAD ACTIVE UNKNOWN

§ Identity

Operator
Country
US
Launch date
2006-09-25
Launch site
AFETR
Launch vehicle
Mass (kg)
RCS (m²)
11.79

Purposes: nav

External: N2YO · Heavens-Above · Gunter

§ Orbital elements

Epoch: 2026-09-09T13:50:00.000096Z

Period
717.97 min
Inclination
54.7148°
Eccentricity
0.0108799
Mean motion
2.00565517 rev/d
Perigee alt
19,893.1 km
Apogee alt
20,471.0 km
Semi-major
26,560.2 km
B*
0.0000e+0
RAAN
147.9872°
Arg perigee
57.0215°
Mean anomaly
177.7744°
Rev number
14,608

§ Raw data

GPS BIIRM-2 (PRN 31)1 29486U 06042A   26252.57638889 -.00000003  00000+0  00000+0 0  99942 29486  54.7148 147.9872 0108799  57.0215 177.7744  2.00565517146089

JSON: /api/v1/satellites/29486 · /tle

For live sub-satellite position, see the globe view (requires WebGL).

§ Visibility from observer

Set your observer location to see the next 7 days of passes ≥ 10°. The values pass through the URL so the page stays shareable.

No JS? Fill the form by hand. The geolocation button needs JavaScript.